Location: Coopersdale
(40.3556°N, 78.9372°W)
Time: 03:31:53
(UTC+00:00)

Tiros 1 despin weight - Pass Details

Date: 19 January 2021
Orbit: 593 x 642 km, 48.2° (Epoch: 02 March)

Event Time Altitude Azimuth Distance (km) Brightness Sun altitude
Rises 20:21:14 0° 214° (SW) 2,876 ? 17.1°
Reaches altitude 10° 20:23:41 10° 205° (SSW) 1,965 ? 16.8°
Maximum altitude 20:27:48 35° 140° (SE) 977 ? 16.3°
Drops below altitude 10° 20:31:52 10° 74° (ENE) 1,947 ? 15.7°
Sets 20:34:17 0° 65° (ENE) 2,846 ? 15.4°
